DW4554 Weather Reports


Display with metric or nautical units.
time (UTC)temp
F
wind
direction
speed
MPH
gust
MPH
rain 1hr
in
rain 24hr
in
rain mn
in
humidity
%
barometer
mb
20260904123904 79 201 3.0 9.0 0.00 0.01 0.00 57 1012.7
20260904123404 79 197 4.0 9.0 0.00 0.01 0.00 57 1012.8
20260904122904 79 199 3.0 12.0 0.00 0.01 0.00 58 1012.8
20260904122405 78 191 4.0 9.0 0.00 0.01 0.00 58 1012.9
20260904121904 78 184 3.0 8.0 0.00 0.01 0.00 57 1013.0
20260904121404 78 212 3.0 8.0 0.00 0.01 0.00 57 1013.1
20260904120904 78 193 2.0 5.0 0.00 0.01 0.00 57 1013.2
20260904120404 78 234 6.0 12.0 0.00 0.01 0.00 57 1013.4
20260904115904 78 218 4.0 8.0 0.00 0.01 0.00 58 1013.4
20260904113904 78 187 6.0 14.0 0.00 0.01 0.00 58 1013.7
20260904113404 78 170 1.0 6.0 0.00 0.01 0.00 60 1013.8
20260904112904 78 198 3.0 8.0 0.00 0.01 0.00 60 1013.9
20260904112404 77 190 3.0 12.0 0.00 0.01 0.00 59 1013.9
20260904111404 77 202 5.0 7.0 0.00 0.01 0.00 59 1014.0
20260904110904 77 192 3.0 9.0 0.00 0.01 0.00 61 1014.0
20260904110404 76 173 2.0 5.0 0.00 0.01 0.00 61 1014.1
20260904105904 76 178 4.0 9.0 0.00 0.01 0.00 61 1014.2
20260904105404 76 182 5.0 10.0 0.00 0.01 0.00 62 1014.3
20260904104904 76 134 3.0 8.0 0.00 0.01 0.00 62 1014.3
20260904104404 75 180 3.0 7.0 0.00 0.01 0.00 64 1014.4
20260904103905 75 159 1.0 3.0 0.00 0.01 0.00 63 1014.6
20260904101904 75 190 3.0 9.0 0.00 0.01 0.00 63 1014.9
20260904101404 75 186 3.0 7.0 0.00 0.01 0.00 65 1015.0
20260904100905 75 208 4.0 12.0 0.00 0.01 0.00 63 1015.0
20260904100405 74 219 5.0 8.0 0.00 0.01 0.00 66 1015.1
20260904095904 74 231 3.0 7.0 0.00 0.01 0.00 67 1015.3
20260904094904 73 235 5.0 8.0 0.00 0.01 0.00 67 1015.5
20260904094404 73 238 5.0 10.0 0.00 0.01 0.00 68 1015.5
20260904093904 73 207 2.0 7.0 0.00 0.01 0.00 68 1015.6
20260904092904 73 193 2.0 5.0 0.00 0.01 0.00 69 1015.7
20260904092404 73 188 2.0 5.0 0.00 0.01 0.00 68 1015.8
20260904091904 73 180 3.0 6.0 0.00 0.01 0.00 68 1015.8
20260904091404 73 207 4.0 8.0 0.00 0.01 0.00 68 1015.8
20260904090904 73 214 3.0 6.0 0.00 0.01 0.00 69 1015.8
20260904085904 73 217 5.0 10.0 0.00 0.01 0.00 68 1015.9
20260904084905 72 231 3.0 8.0 0.00 0.01 0.00 70 1016.0
20260904084405 72 174 5.0 7.0 0.00 0.01 0.00 70 1016.1
20260904083904 71 194 3.0 6.0 0.00 0.01 0.00 70 1016.2
20260904083405 71 186 1.0 5.0 0.00 0.01 0.00 70 1016.3
20260904081904 70 205 4.0 6.0 0.00 0.01 0.00 72 1016.3
20260904080404 69 175 3.0 6.0 0.00 0.01 0.00 73 1016.5
20260904075905 69 173 3.0 6.0 0.00 0.01 0.00 74 1016.6
20260904075404 68 245 4.0 6.0 0.00 0.01 0.00 75 1016.7
20260904074904 68 210 1.0 3.0 0.00 0.01 0.00 75 1016.6
20260904074404 68 222 1.0 3.0 0.00 0.01 0.00 76 1016.5
20260904073905 68 222 3.0 3.0 0.00 0.01 0.00 76 1016.6
20260904072904 67 222 3.0 5.0 0.00 0.01 0.00 76 1016.6
20260904072404 67 204 1.0 3.0 0.00 0.01 0.00 77 1016.5
20260904071905 67 204 2.0 3.0 0.00 0.01 0.00 77 1016.5
20260904071404 66 204 3.0 6.0 0.00 0.01 0.00 78 1016.5
20260904070404 65 209 2.0 3.0 0.00 0.01 0.00 80 1016.5
20260904064904 64 242 1.0 5.0 0.00 0.01 0.00 83 1016.6
20260904064404 64 79 1.0 3.0 0.00 0.01 0.00 83 1016.6
20260904063905 64 58 0.0 0.0 0.00 0.01 0.00 84 1016.5
20260904062904 63 58 0.0 0.0 0.00 0.01 0.00 85 1016.5
20260904062405 63 58 0.0 1.0 0.00 0.01 0.00 85 1016.4
20260904061404 63 58 0.0 0.0 0.00 0.01 0.00 86 1016.5
20260904060904 62 58 0.0 2.0 0.00 0.01 0.00 86 1016.4
20260904060404 62 58 0.0 2.0 0.00 0.01 0.00 86 1016.4
20260904055905 62 58 0.0 2.0 0.00 0.01 0.00 87 1016.3
20260904054404 61 58 1.0 2.0 0.00 0.01 0.00 87 1016.3
20260904053904 61 58 2.0 3.0 0.00 0.01 0.00 87 1016.4
20260904053404 61 58 1.0 2.0 0.00 0.01 0.00 87 1016.3
20260904052905 61 58 1.0 2.0 0.00 0.01 0.00 87 1016.3
20260904052404 61 58 1.0 3.0 0.00 0.01 0.00 88 1016.2
20260904051905 60 56 1.0 3.0 0.00 0.01 0.00 88 1016.2
20260904051404 60 51 0.0 2.0 0.00 0.01 0.00 89 1016.2
20260904050904 60 51 0.0 2.0 0.00 0.01 0.00 89 1016.2
20260904050404 60 51 1.0 3.0 0.00 0.01 0.00 89 1016.3
20260904045904 60 51 1.0 3.0 0.00 0.01 0.00 89 1016.4
20260904045404 60 51 1.0 3.0 0.00 0.01 0.00 89 1016.4
20260904044904 60 51 0.0 1.0 0.00 0.01 0.00 89 1016.4
20260904044404 59 51 0.0 2.0 0.00 0.01 0.00 89 1016.3
20260904043904 59 51 1.0 3.0 0.00 0.01 0.00 89 1016.2
20260904043404 59 51 1.0 2.0 0.00 0.01 0.00 89 1016.4
20260904042904 59 51 1.0 2.0 0.00 0.01 0.00 89 1016.3
20260904041904 59 51 1.0 2.0 0.00 0.01 0.00 89 1016.3
20260904041404 59 51 0.0 1.0 0.00 0.01 0.00 89 1016.4
20260904040904 59 51 0.0 2.0 0.00 0.01 0.00 89 1016.2
20260904040404 59 51 0.0 1.0 0.00 0.01 0.00 89 1016.4
20260904035904 59 51 0.0 2.0 0.00 0.01 0.00 89 1016.4
20260904035405 59 51 1.0 2.0 0.00 0.01 0.00 89 1016.3
20260904034904 59 51 1.0 3.0 0.00 0.01 0.00 89 1016.3
20260904034404 59 51 1.0 2.0 0.00 0.01 0.00 89 1016.3
20260904033904 59 51 1.0 2.0 0.00 0.01 0.00 89 1016.3
20260904033405 59 51 0.0 1.0 0.00 0.01 0.00 89 1016.3
20260904032904 59 51 0.0 1.0 0.00 0.01 0.00 89 1016.4
20260904032404 59 51 0.0 1.0 0.00 0.01 0.00 89 1016.4
20260904031904 59 51 0.0 0.0 0.00 0.01 0.00 89 1016.5
20260904031404 58 51 0.0 1.0 0.00 0.01 0.00 89 1016.6
20260904030904 58 51 0.0 2.0 0.00 0.01 0.00 89 1016.7
20260904030404 58 51 0.0 1.0 0.00 0.01 0.00 89 1016.7
20260904025905 58 51 0.0 0.0 0.00 0.01 0.00 89 1016.6
20260904025404 58 51 0.0 0.0 0.00 0.01 0.00 89 1016.5
20260904024405 58 51 1.0 3.0 0.00 0.01 0.00 89 1016.4
20260904023905 58 51 1.0 2.0 0.00 0.01 0.00 89 1016.5
20260904022905 58 51 0.0 2.0 0.00 0.01 0.00 89 1016.5
20260904022404 58 51 0.0 2.0 0.00 0.01 0.00 89 1016.3
20260904021905 58 51 1.0 3.0 0.00 0.01 0.00 89 1016.3
20260904021405 58 51 1.0 3.0 0.00 0.01 0.00 89 1016.3
20260904020904 58 51 0.0 3.0 0.00 0.01 0.00 89 1016.2
20260904015904 58 51 0.0 1.0 0.00 0.01 0.00 89 1016.2
20260904015405 58 51 0.0 1.0 0.00 0.01 0.00 89 1016.3
20260904014904 58 51 1.0 2.0 0.00 0.01 0.00 89 1016.4
20260904014404 58 51 1.0 1.0 0.00 0.01 0.00 89 1016.5
20260904013904 58 51 0.0 2.0 0.00 0.01 0.00 90 1016.5
20260904012904 58 51 1.0 2.0 0.00 0.01 0.00 89 1016.5
20260904012405 58 51 0.0 2.0 0.00 0.01 0.00 89 1016.5
20260904011904 58 51 0.0 2.0 0.00 0.01 0.00 89 1016.6
20260904011405 58 51 0.0 2.0 0.00 0.01 0.00 89 1016.6
20260904010904 58 51 1.0 2.0 0.00 0.01 0.00 89 1016.7
20260904010405 58 51 0.0 2.0 0.00 0.01 0.00 89 1016.7
20260904005905 58 51 0.0 2.0 0.00 0.01 0.00 89 1016.7
20260904005404 58 51 0.0 0.0 0.00 0.01 0.00 89 1016.6
20260904004905 58 51 0.0 0.0 0.00 0.01 0.00 89 1016.7
20260904004405 58 51 0.0 0.0 0.00 0.01 0.00 90 1016.7
20260904003905 58 51 1.0 3.0 0.00 0.01 0.00 90 1016.8
20260904003404 58 44 2.0 3.0 0.00 0.01 0.00 89 1016.7
20260904002904 58 57 2.0 3.0 0.00 0.01 0.00 89 1016.7
20260904002404 58 44 1.0 2.0 0.00 0.01 0.00 89 1016.8
20260904001905 58 44 0.0 3.0 0.00 0.01 0.00 89 1016.8
20260904001405 58 44 1.0 3.0 0.00 0.01 0.00 89 1016.7
20260904000904 58 44 0.0 2.0 0.00 0.01 0.00 89 1016.8
20260904000404 58 44 0.0 2.0 0.00 0.01 0.00 89 1016.9
20260903235905 58 44 2.0 3.0 0.00 0.01 0.00 89 1016.9
20260903234905 58 44 0.0 0.0 0.00 0.01 0.00 89 1017.1
20260903234404 58 44 0.0 0.0 0.00 0.01 0.00 89 1017.1
20260903233904 58 44 0.0 0.0 0.00 0.01 0.00 89 1017.0
20260903233404 58 44 0.0 1.0 0.00 0.01 0.00 89 1017.0
20260903232404 58 44 2.0 3.0 0.00 0.01 0.00 89 1016.9
20260903231404 58 53 2.0 3.0 0.00 0.01 0.00 88 1017.0
20260903230904 58 56 1.0 2.0 0.00 0.01 0.00 88 1017.1
20260903230404 58 56 1.0 2.0 0.00 0.01 0.00 87 1017.1
20260903225904 58 56 0.0 0.0 0.00 0.01 0.00 87 1017.2
20260903225404 59 56 0.0 0.0 0.00 0.01 0.00 87 1017.2
20260903224904 59 56 0.0 1.0 0.00 0.01 0.00 87 1017.2
20260903224405 59 56 0.0 0.0 0.00 0.01 0.00 87 1017.2
20260903223904 59 56 0.0 0.0 0.00 0.01 0.00 87 1017.1
20260903223405 59 56 0.0 0.0 0.00 0.01 0.00 87 1017.1
20260903222904 59 56 0.0 0.0 0.00 0.01 0.00 86 1017.0
20260903221904 59 56 0.0 0.0 0.00 0.01 0.00 87 1017.1
20260903221404 59 56 0.0 0.0 0.00 0.01 0.00 86 1017.0
20260903220904 59 56 0.0 1.0 0.00 0.01 0.00 86 1017.1
20260903220404 59 56 0.0 0.0 0.00 0.01 0.00 86 1017.2
20260903215405 60 56 0.0 0.0 0.00 0.01 0.01 86 1017.1
20260903214904 60 56 0.0 0.0 0.00 0.01 0.01 86 1017.1
20260903214404 60 56 0.0 0.0 0.00 0.01 0.01 86 1017.2
20260903213906 60 56 0.0 0.0 0.00 0.01 0.01 86 1017.1
20260903213404 60 56 0.0 2.0 0.00 0.01 0.01 85 1017.0
20260903212904 60 55 0.0 0.0 0.00 0.01 0.01 85 1017.0
20260903212404 60 55 0.0 2.0 0.00 0.01 0.01 84 1017.0
20260903211905 60 55 1.0 2.0 0.00 0.01 0.01 84 1016.9
20260903211404 60 55 2.0 3.0 0.00 0.01 0.01 84 1016.8
20260903210904 60 57 0.0 2.0 0.00 0.01 0.01 84 1016.8
20260903205904 61 57 0.0 1.0 0.00 0.01 0.01 83 1016.8
20260903205405 61 57 0.0 3.0 0.00 0.01 0.01 83 1016.8
20260903204904 61 57 0.0 2.0 0.00 0.01 0.01 83 1016.7
20260903204405 61 57 1.0 3.0 0.00 0.01 0.01 82 1016.7
20260903203904 61 57 1.0 3.0 0.00 0.01 0.01 82 1016.7
20260903203404 61 57 2.0 3.0 0.00 0.01 0.01 82 1016.7
20260903202904 62 80 2.0 3.0 0.00 0.01 0.01 82 1016.7
20260903202404 62 80 2.0 3.0 0.00 0.01 0.01 81 1016.6
20260903201904 62 81 2.0 3.0 0.00 0.01 0.01 80 1016.6
20260903201404 62 82 2.0 3.0 0.00 0.01 0.01 80 1016.7
20260903200905 62 85 2.0 3.0 0.00 0.01 0.01 80 1016.6
20260903200404 63 248 1.0 2.0 0.00 0.01 0.01 79 1016.6
20260903195904 63 248 0.0 0.0 0.00 0.01 0.01 78 1016.6
20260903195404 63 248 0.0 1.0 0.00 0.01 0.01 78 1016.6
20260903194904 63 248 1.0 1.0 0.00 0.01 0.01 77 1016.7
20260903194404 63 248 0.0 0.0 0.00 0.01 0.01 77 1016.7
20260903193904 64 248 0.0 0.0 0.00 0.01 0.01 77 1016.5
20260903193404 64 248 0.0 0.0 0.00 0.01 0.01 76 1016.6
20260903192904 64 248 0.0 0.0 0.00 0.01 0.01 75 1016.5
20260903192404 64 248 0.0 0.0 0.00 0.01 0.01 75 1016.5
20260903191904 65 248 0.0 0.0 0.00 0.01 0.01 75 1016.4
20260903191404 65 248 0.0 0.0 0.00 0.01 0.01 74 1016.3
20260903190904 65 248 0.0 0.0 0.00 0.01 0.01 74 1016.4
20260903190404 66 248 0.0 0.0 0.00 0.01 0.01 73 1016.4
20260903185905 66 248 0.0 0.0 0.00 0.01 0.01 73 1016.3
20260903184904 66 248 0.0 0.0 0.00 0.01 0.01 72 1016.3
20260903184404 67 248 0.0 0.0 0.00 0.01 0.01 72 1016.3
20260903183904 67 248 0.0 0.0 0.00 0.01 0.01 71 1016.3
20260903183404 67 248 0.0 0.0 0.00 0.01 0.01 71 1016.3
20260903182904 68 248 0.0 0.0 0.00 0.01 0.01 71 1016.2
20260903182405 68 248 0.0 0.0 0.00 0.01 0.01 70 1016.2
20260903181904 68 248 0.0 0.0 0.00 0.01 0.01 70 1016.3
20260903181404 69 248 0.0 0.0 0.00 0.01 0.01 70 1016.2
20260903180904 69 248 0.0 0.0 0.00 0.01 0.01 69 1016.1
20260903180404 69 248 0.0 0.0 0.00 0.01 0.01 68 1016.0
20260903175904 70 248 0.0 2.0 0.00 0.01 0.01 68 1015.9
20260903175404 70 248 0.0 0.0 0.00 0.01 0.01 67 1015.9
20260903174905 71 248 0.0 0.0 0.00 0.01 0.01 66 1015.8
20260903174405 71 248 0.0 0.0 0.00 0.01 0.01 66 1015.9
20260903173904 71 248 0.0 0.0 0.00 0.01 0.01 65 1015.8
20260903173405 72 248 0.0 0.0 0.00 0.01 0.01 65 1015.9
20260903172904 72 248 0.0 0.0 0.00 0.01 0.01 64 1015.8
20260903172404 72 248 0.0 0.0 0.00 0.01 0.01 63 1015.8
20260903170904 73 248 0.0 0.0 0.00 0.01 0.01 61 1015.8
20260903170404 74 248 0.0 0.0 0.00 0.01 0.01 60 1015.9
20260903165904 74 248 0.0 0.0 0.00 0.01 0.01 60 1015.9
20260903165404 74 248 0.0 0.0 0.00 0.01 0.01 59 1015.8
20260903164906 75 248 0.0 0.0 0.00 0.01 0.01 58 1015.8
20260903163405 76 248 0.0 0.0 0.00 0.01 0.01 55 1015.7
20260903162904 76 248 1.0 3.0 0.00 0.01 0.01 54 1015.8
20260903162404 76 248 1.0 3.0 0.00 0.01 0.01 54 1015.8
20260903161904 77 248 1.0 3.0 0.00 0.01 0.01 53 1015.9
20260903160905 78 248 2.0 3.0 0.00 0.01 0.01 52 1015.8
20260903160405 78 248 0.0 0.0 0.00 0.01 0.01 52 1015.8
20260903155904 78 248 1.0 2.0 0.00 0.01 0.01 51 1015.8
20260903155404 79 248 1.0 2.0 0.00 0.01 0.01 51 1015.8
20260903154904 79 248 2.0 3.0 0.00 0.01 0.01 49 1015.8
20260903154405 79 248 1.0 3.0 0.00 0.01 0.01 49 1015.8
20260903152905 79 281 2.0 6.0 0.00 0.01 0.01 49 1015.9
20260903152404 79 270 2.0 5.0 0.00 0.01 0.01 49 1015.8
20260903151904 79 297 1.0 3.0 0.00 0.01 0.01 50 1015.9
20260903151405 78 276 2.0 5.0 0.00 0.01 0.01 51 1015.9
20260903150904 78 300 1.0 3.0 0.00 0.01 0.01 52 1015.9
20260903150404 78 300 1.0 3.0 0.01 0.01 0.01 52 1015.9
20260903145904 77 300 0.0 3.0 0.01 0.01 0.01 53 1016.0
20260903145404 77 308 2.0 3.0 0.01 0.01 0.01 54 1015.9
20260903144905 77 312 1.0 2.0 0.01 0.01 0.01 54 1015.9
20260903143904 76 312 2.0 3.0 0.01 0.01 0.01 56 1015.9
20260903143404 76 311 0.0 0.0 0.01 0.01 0.01 56 1016.1
20260903142405 76 311 2.0 3.0 0.01 0.01 0.01 57 1016.2
20260903141404 76 313 0.0 0.0 0.01 0.01 0.01 56 1016.0
20260903140904 76 313 0.0 0.0 0.01 0.01 0.01 56 1016.1
20260903140404 76 313 0.0 0.0 0.00 0.00 0.00 55 1016.0
20260903135404 76 313 1.0 3.0 0.00 0.00 0.00 55 1016.1
20260903134904 76 313 1.0 2.0 0.00 0.00 0.00 56 1016.0
20260903133905 76 313 0.0 1.0 0.00 0.00 0.00 57 1016.1
20260903132904 76 313 1.0 3.0 0.00 0.00 0.00 55 1016.2
20260903132404 76 313 1.0 3.0 0.00 0.00 0.00 55 1016.2
20260903131904 76 312 1.0 3.0 0.00 0.00 0.00 55 1016.3
20260903131404 76 311 1.0 3.0 0.00 0.00 0.00 56 1016.3
20260903130905 76 34 1.0 3.0 0.00 0.00 0.00 56 1016.2
20260903130404 75 34 1.0 3.0 0.00 0.00 0.00 56 1016.1
20260903124904 74 73 1.0 3.0 0.00 0.00 0.00 58 1016.6
20260903124404 74 101 0.0 3.0 0.00 0.00 0.00 59 1016.6